Regional Weather Roundup
Issued by NWS

Home | Current Version | Previous Version | Text Only | Print | Product List | Glossary On
Versions: 1 2 3 4 5 6 7 8 9 10 11 12 13 14 15 16 17 18 19 20 21 22 23 24 25 26 27 28 29 30 31 32 33 34 35 36 37 38 39 40 41 42 43 44 45 46 47 48 49 50
000
ASUS43 KLMK 301910
RWRKY
KENTUCKY REGIONAL WEATHER ROUNDUP
NATIONAL WEATHER SERVICE LOUISVILLE KY
300 PM EDT SAT APR 30 2016

NOTE "FAIR" INDICATES FEW OR NO CLOUDS BELOW 12,000 FEET
WITH NO SIGNIFICANT WEATHER AND/OR OBSTRUCTIONS TO VISIBILITY.

KYZ001>023-026-027-061>063-070>075-302000-
WESTERN AND SOUTH CENTRAL KENTUCKY

CITY           SKY/WX    TMP DP  RH WIND       PRES   REMARKS
PADUCAH        CLOUDY    72  62  71 SW6       29.83R
HENDERSON      CLOUDY    66  61  82 SE7       29.84F
OWENSBORO      LGT RAIN  67  64  90 S7        29.88R
HOPKINSVILLE   PTSUNNY   69  66  89 SE9       29.84F
BOWLING GREEN  CLOUDY    70  64  81 SE10      29.90F
GLASGOW        CLOUDY    68  60  76 SE5       29.92F
$$

KYZ024-025-028>034-038-045-046-053-302000-
NORTH CENTRAL KENTUCKY

CITY           SKY/WX    TMP DP  RH WIND       PRES   REMARKS
LOUISVILLE/SDF CLOUDY    63  60  90 SE14      29.90F
LOUISVILLE/LOU LGT RAIN  62  59  90 SE6       29.91F
FORT KNOX      CLOUDY    63  63 100 E12       29.88F
$$

KYZ035>037-039>044-047>052-055>060-089>105-302000-
NORTHEAST KENTUCKY

CITY           SKY/WX    TMP DP  RH WIND       PRES   REMARKS
LEXINGTON      LGT RAIN  60  58  92 SE8       29.97F FOG
COVINGTON      LGT RAIN  57  57 100 SE15      29.96F FOG
FRANKFORT      LGT RAIN  62  58  86 E6        29.96F
$$

KYZ054-064>069-076>088-106>120-302000-
SOUTHEAST KENTUCKY

CITY           SKY/WX    TMP DP  RH WIND       PRES   REMARKS
JACKSON        LGT RAIN  61  58  90 SE3       30.03F FOG
LONDON         RAIN      61  58  90 E7        30.01F FOG
SOMERSET       CLOUDY    61  61 100 SE6       30.00R
MIDDLESBORO    RAIN      62  62  99 CALM      30.05R
MONTICELLO     CLOUDY    63  60  90 VRB6      30.00R
$$





USA.gov is the U.S. government's official web portal to all federal, state and local government web resources and services.